Hayward, WI

2:30 PM CST on December 17, 2017 (GMT -0600)
Sawyer County

Weather History for KHYR - April, 2014

Change the Weather History Date:

Thursday, April 3, 2014

  Actual Average Record
Temperature  
Mean Temperature 32 °F -  
Max Temperature 37 °F 54 °F 64 °F (2005)
Min Temperature 27 °F 26 °F 7 °F (2013)
Degree Days  
Heating Degree Days 34    
Moisture  
Dew Point 23 °F    
Average Humidity 77    
Maximum Humidity 93    
Minimum Humidity 34    
Precipitation  
Precipitation 0.29 in - - ()
Sea Level Pressure  
Sea Level Pressure 29.96 in    
Wind  
Wind Speed 9 mph (NE)    
Max Wind Speed 15 mph    
Max Gust Speed 22 mph    
Visibility 4 miles    
Events Fog , Snow    
Averages and records for this station are not official NWS values.
T = Trace of Precipitation, MM = Missing Value Source: NWS Daily Summary

Daily Weather History Graph

Daily Weather History Graph

Search for Another Location

Airport or City:

Trip Planner

Search our weather history database for the weather conditions in past years. The results will help you decide how hot, cold, wet, or windy it might be!

Date:

Astronomy

Apr. 03, 2014 Rise Set
Actual Time 6:41 AM CDT 7:37 PM CDT
Civil Twilight 6:11 AM CDT 8:07 PM CDT
Nautical Twilight 5:35 AM CDT 8:43 PM CDT
Astronomical Twilight 4:57 AM CDT 9:22 PM CDT
Moon 9:00 AM CDT (4/3) No Moon Set
Length of Visible Light 13h 56m
Length of Day
12h 55m
Waxing Crescent, 17% of the Moon is Illuminated
Apr 3
Waxing Crescent
Apr 7
First Quarter
Apr 15
Full
Apr 22
Last Quarter
Apr 29
New

Hourly Weather History & Observations

Time (CDT) Temp. Windchill Dew Point Humidity Pressure Visibility Wind Dir Wind Speed Gust Speed Precip Events Conditions
12:53 AM 33.1 °F 27.7 °F 17.1 °F 52% 30.19 in 10.0 mi ENE 5.8 mph - N/A   Overcast
1:53 AM 33.1 °F 27.7 °F 17.1 °F 52% 30.18 in 10.0 mi ENE 5.8 mph - N/A   Overcast
2:53 AM 33.1 °F 26.1 °F 17.1 °F 52% 30.16 in 10.0 mi NE 8.1 mph - N/A   Overcast
3:53 AM 33.1 °F 25.5 °F 16.0 °F 50% 30.13 in 10.0 mi ENE 9.2 mph - N/A   Overcast
4:53 AM 33.1 °F 26.1 °F 16.0 °F 50% 30.10 in 10.0 mi ESE 8.1 mph - N/A   Overcast
5:53 AM 33.1 °F 27.7 °F 18.0 °F 54% 30.11 in 10.0 mi NE 5.8 mph - N/A   Overcast
6:53 AM 32.0 °F 24.8 °F 19.0 °F 59% 30.11 in 10.0 mi ENE 8.1 mph - N/A   Overcast
7:53 AM 33.1 °F 27.7 °F 19.0 °F 56% 30.11 in 10.0 mi ENE 5.8 mph - N/A   Overcast
8:53 AM 34.0 °F 26.6 °F 19.0 °F 54% 30.10 in 10.0 mi East 9.2 mph - N/A   Overcast
9:53 AM 34.0 °F 27.2 °F 17.1 °F 50% 30.09 in 10.0 mi East 8.1 mph - N/A   Overcast
10:53 AM 35.1 °F 26.9 °F 12.9 °F 40% 30.06 in 10.0 mi East 11.5 mph - N/A   Overcast
11:53 AM 36.0 °F 27.1 °F 10.0 °F 34% 30.04 in 10.0 mi East 13.8 mph - N/A   Overcast
12:53 PM 36.0 °F 28.5 °F 15.1 °F 43% 30.06 in 10.0 mi East 10.4 mph 19.6 mph N/A   Overcast
1:53 PM 35.1 °F 25.5 °F 21.9 °F 59% 30.02 in 10.0 mi ENE 15.0 mph 20.7 mph 0.00 in   Overcast
2:39 PM 34.0 °F 24.6 °F 24.1 °F 67% 29.97 in 3.0 mi NE 13.8 mph 18.4 mph 0.00 in Snow Light Snow
2:49 PM 33.8 °F 26.4 °F 23.0 °F 65% 29.97 in 8.0 mi NE 9.2 mph - 0.00 in Snow Light Snow
2:53 PM 34.0 °F 26.0 °F 23.0 °F 64% 30.01 in 9.0 mi NE 10.4 mph - 0.00 in   Overcast
3:27 PM 34.0 °F 24.6 °F 21.9 °F 61% 29.94 in 2.5 mi ENE 13.8 mph - 0.00 in Snow Light Snow
3:35 PM 33.1 °F 23.4 °F 24.1 °F 70% 29.95 in 1.5 mi East 13.8 mph 19.6 mph 0.00 in Snow Light Snow
3:47 PM 32.0 °F 22.1 °F 26.6 °F 80% 29.94 in 0.8 mi NE 13.8 mph 20.7 mph 0.00 in Snow Light Snow
3:53 PM 30.9 °F 20.7 °F 26.1 °F 82% 29.98 in 0.5 mi NE 13.8 mph - 0.00 in Snow Snow
4:18 PM 30.0 °F 22.4 °F 27.0 °F 88% 29.92 in 0.5 mi North 8.1 mph - 0.01 in Fog , Snow Snow
4:53 PM 30.0 °F 22.4 °F 27.0 °F 88% 29.95 in 0.5 mi NNE 8.1 mph 17.3 mph 0.05 in Fog , Snow Snow
5:02 PM 30.0 °F 21.1 °F 27.0 °F 88% 29.91 in 0.5 mi NNE 10.4 mph - 0.01 in Fog , Snow Snow
5:28 PM 30.0 °F 19.1 °F 27.0 °F 88% 29.90 in 0.5 mi NE 15.0 mph - 0.03 in Fog , Snow Snow
5:37 PM 30.0 °F 20.5 °F 27.0 °F 88% 29.90 in 0.8 mi NE 11.5 mph - 0.03 in Snow Light Snow
5:53 PM 28.9 °F 17.7 °F 26.1 °F 89% 29.95 in 0.5 mi NE 15.0 mph - 0.05 in Fog , Snow Light Snow
6:02 PM 30.0 °F 22.4 °F 26.1 °F 85% 29.91 in 1.0 mi NNE 8.1 mph - 0.00 in Snow Light Snow
6:10 PM 28.9 °F 21.1 °F 27.0 °F 92% 29.90 in 1.0 mi NNE 8.1 mph - 0.01 in Snow Light Snow
6:16 PM 28.9 °F 20.4 °F 26.1 °F 89% 29.90 in 0.8 mi NNE 9.2 mph - 0.03 in Snow Light Snow
6:23 PM 28.9 °F 20.4 °F 26.1 °F 89% 29.90 in 1.0 mi NNE 9.2 mph - 0.04 in Snow Light Snow
6:27 PM 28.9 °F 19.8 °F 26.1 °F 89% 29.90 in 0.8 mi NNE 10.4 mph - 0.04 in Snow Light Snow
6:34 PM 28.9 °F 19.8 °F 26.1 °F 89% 29.90 in 0.8 mi NNE 10.4 mph - 0.05 in Snow Light Snow
6:38 PM 28.9 °F 20.4 °F 26.1 °F 89% 29.90 in 1.2 mi NE 9.2 mph 16.1 mph 0.05 in Snow Light Snow
6:44 PM 28.9 °F 19.2 °F 26.1 °F 89% 29.90 in 2.0 mi NE 11.5 mph - 0.05 in Snow Light Snow
6:50 PM 28.4 °F 18.5 °F 26.6 °F 93% 29.90 in 1.8 mi NE 11.5 mph - 0.05 in Snow Light Snow
6:53 PM 28.9 °F 19.2 °F 26.1 °F 89% 29.96 in 1.5 mi NE 11.5 mph - 0.05 in Snow Light Snow
6:57 PM 28.9 °F 19.8 °F 26.1 °F 89% 29.90 in 1.0 mi NE 10.4 mph - 0.01 in Snow Light Snow
6:59 PM 28.9 °F 18.6 °F 26.1 °F 89% 29.90 in 0.8 mi NE 12.7 mph - 0.01 in Snow Light Snow
7:08 PM 28.9 °F 18.6 °F 26.1 °F 89% 29.90 in 1.0 mi NE 12.7 mph - 0.01 in Snow Light Snow
7:23 PM 28.9 °F 21.1 °F 26.1 °F 89% 29.90 in 1.5 mi NNE 8.1 mph - 0.02 in Snow Light Snow
7:43 PM 28.0 °F 19.3 °F 25.0 °F 88% 29.90 in 1.0 mi NNE 9.2 mph - 0.04 in Snow Light Snow
7:50 PM 28.4 °F 19.7 °F 24.8 °F 86% 29.90 in 0.8 mi NNE 9.2 mph 16.1 mph 0.04 in Snow Light Snow
7:53 PM 28.0 °F 20.8 °F 25.0 °F 88% 29.95 in 1.0 mi Variable 6.9 mph - 0.04 in Snow Light Snow
8:09 PM 27.0 °F 18.0 °F 25.0 °F 92% 29.89 in 0.8 mi NNE 9.2 mph - 0.01 in Snow Light Snow
8:21 PM 27.0 °F 18.0 °F 25.0 °F 92% 29.89 in 1.2 mi NNE 9.2 mph - 0.02 in Snow Light Snow
8:34 PM 27.0 °F 18.0 °F 24.1 °F 89% 29.89 in 1.5 mi NNE 9.2 mph - 0.02 in Snow Light Snow
8:53 PM 27.0 °F 18.0 °F 24.1 °F 89% 29.95 in 1.2 mi NNE 9.2 mph - 0.02 in Snow Light Snow
9:05 PM 27.0 °F 16.1 °F 24.1 °F 89% 29.89 in 0.8 mi NNE 12.7 mph - 0.01 in Snow Light Snow
9:33 PM 28.0 °F 17.5 °F 25.0 °F 88% 29.88 in 0.5 mi NNE 12.7 mph 19.6 mph 0.03 in Fog , Snow Snow
9:44 PM 28.0 °F 18.6 °F 25.0 °F 88% 29.88 in 1.0 mi NNE 10.4 mph 18.4 mph 0.04 in Snow Light Snow
9:48 PM 28.4 °F 19.1 °F 26.6 °F 93% 29.88 in 2.0 mi NNE 10.4 mph - 0.04 in Snow Light Snow
10:53 PM 28.0 °F 18.6 °F 25.0 °F 88% 29.89 in 1.0 mi NNE 10.4 mph 18.4 mph 0.02 in Snow Light Snow
11:10 PM 28.0 °F 17.5 °F 26.1 °F 92% 29.83 in 0.8 mi NNE 12.7 mph - 0.02 in Snow Light Snow
11:27 PM 28.0 °F 17.5 °F 25.0 °F 88% 29.81 in 0.8 mi NE 12.7 mph - 0.04 in Snow Light Snow
11:49 PM 28.4 °F 18.5 °F 24.8 °F 86% 29.80 in 1.0 mi NNE 11.5 mph 18.4 mph 0.06 in Snow Light Snow
11:53 PM 28.0 °F 17.0 °F 25.0 °F 88% 29.85 in 1.2 mi NE 13.8 mph 21.9 mph 0.06 in Snow Light Snow